Location: Eschertshofen
(49.3064°N, 11.5756°E)
Time: 06:54:50
(UTC+00:00)

ATLAS 3B R/B - Pass Details

Date: 18 September 2020
Orbit: 1016 x 1179 km, 63.8° (Epoch: 04 October)

Event Time Altitude Azimuth Distance (km) Brightness Sun altitude
Rises 19:31:06 0° 316° (NW) 3,807 6.9 -21.3°
Reaches altitude 10° 19:33:50 10° 322° (NW) 2,871 5.9 -21.7°
Maximum altitude 19:40:19 45° 35° (NE) 1,438 3.3 -22.6°
Enters shadow 19:42:49 33° 81° (E) 1,742 3.4 -22.9°
